Location: Fränkisch-Crumbach
(49.7473°N, 8.8561°E)
Time: 08:41:49
(UTC+00:00)

Daily predictions for brighter satellites

Satellite Brightness Start Highest point End
(mag) Time Altitude Azimuth Time Altitude Azimuth Time Altitude Azimuth
Okean 2 Rocket 4.5 19:35:32 10° SSW 19:39:49 45° WNW 19:44:09 10° N
MetOp-B 4.2 19:34:30 10° SSE 19:39:52 88° ENE 19:45:15 10° NNW
Cosmos 1459 Rocket 4.4 19:35:41 10° SSW 19:41:51 71° W 19:47:59 10° N
Cosmos 1980 Rocket 3.3 19:37:23 10° NW 19:42:45 43° WSW 19:48:03 10° S
Cosmos 2061 Rocket 4.2 19:37:20 10° SSE 19:43:20 53° E 19:49:27 10° NNE
CZ-4 R/B 2.3 19:41:17 10° S 19:44:44 42° W 19:48:13 10° NNW
USA 186 2.4 19:43:10 10° SE 19:45:38 30° ENE 19:48:07 10° N
Cosmos 2228 2.9 19:41:50 10° S 19:45:54 68° E 19:49:59 10° NNE
COSMOS 2406 3.6 19:41:07 10° S 19:46:29 43° ESE 19:51:52 10° NE
Cosmos 2084 Rocket 4.4 19:43:45 10° NW 19:47:42 40° SW 19:51:40 10° SSE
SL-08 R/B 3.5 19:43:08 10° NNE 19:47:52 53° E 19:52:28 10° S
Cosmos 1743 3.3 19:46:20 10° NNW 19:49:12 42° W 19:52:04 10° SSW
ISS -3.4 19:46:16 10° W 19:49:36 66° N 19:52:56 10° ENE
Cosmos 1461 3.3 19:47:04 10° S 19:50:23 32° ESE 19:53:42 10° NE
Cosmos 1455 Rocket 3.4 19:46:18 10° SSW 19:50:41 72° W 19:55:04 10° N
Cosmos 1992 Rocket 4.1 19:45:42 10° S 19:50:46 57° ESE 19:55:53 10° NNE
Cosmos 1892 Rocket 4.2 19:47:11 10° NNW 19:51:25 56° W 19:55:36 10° S
Cosmos 1802 Rocket 4.2 19:45:30 10° SSW 19:51:40 78° W 19:57:50 10° N
SKYMED 3 4.3 19:47:47 10° NNE 19:51:45 69° ESE 19:55:42 10° S
Terra 2.1 19:48:07 10° S 19:52:47 69° WSW 19:57:30 10° NNW
Okean O Rocket 1.6 19:53:08 10° SSE 19:57:22 66° ENE 20:01:40 10° N
Cosmos 2333 Rocket 2.5 19:53:18 10° NNW 19:58:58 61° ENE 20:04:29 11° SE
NOSS 3-3 (A) 3.7 19:59:08 10° SW 20:04:20 84° SE 20:10:38 10° NE
Cosmos 1544 Rocket 3.9 20:00:21 10° SSE 20:04:28 46° E 20:08:37 10° NNE
Cosmos 1437 Rocket 3.2 20:03:39 10° SSE 20:06:56 36° E 20:10:16 10° NNE
Cosmos 2360 Rocket 2.8 20:03:29 10° NNW 20:08:57 46° NE 20:13:59 12° SE
Helios 1A Rocket 3.3 20:06:09 10° N 20:09:13 48° WNW 20:12:15 10° SSW
CZ-4B R/B 3.9 20:07:39 10° S 20:13:10 55° W 20:18:41 10° NNW
Cosmos 2233 Rocket 4.1 20:09:03 10° SSW 20:15:14 81° W 20:21:26 10° N
Okean-O 2.7 20:15:11 10° S 20:19:33 78° WSW 20:23:57 10° NNW
Cosmos 1486 Rocket 4.3 20:14:21 10° NNW 20:19:33 56° ENE 20:23:55 15° SE
Cosmos 1758 Rocket 3.6 20:17:05 10° N 20:21:31 90° N 20:25:51 11° S
Cosmos 909 Rocket 4.1 20:15:17 10° SW 20:21:35 88° NW 20:28:11 10° NE
Cosmos 2219 Rocket 3.1 20:16:20 10° NNW 20:21:37 38° NE 20:26:24 12° ESE
CZ-2C R/B 3.6 20:21:09 15° ESE 20:22:34 21° ENE 20:24:47 10° NNE
DNEPR-1 R/B 4.4 20:24:01 10° NW 20:29:29 87° NE 20:34:57 16° SE
Nadezhda 4 Rocket 4.4 20:24:48 10° N 20:30:43 48° ENE 20:35:26 16° SE
Meteor 1-25 Rocket 4.2 20:25:16 10° N 20:30:57 73° ENE 20:35:41 15° SSE
USA 245 4.3 20:25:40 12° SSE 20:31:06 79° ENE 20:36:35 10° NNW
IRS-1C Rocket 4.3 20:27:08 15° SE 20:31:28 60° ENE 20:36:39 10° N
Cosmos 1825 Rocket 4.3 20:30:02 10° N 20:34:07 38° ENE 20:36:52 18° SE
Cosmos 1805 3.2 20:31:33 10° N 20:34:45 47° ENE 20:36:34 22° SE
Cosmos 220 Rocket 3.8 20:32:51 10° S 20:36:50 60° ESE 20:40:54 10° NNE
NOSS 3-3 (C) 4.0 20:31:38 10° SW 20:36:56 76° NW 20:43:24 10° NE
Meteor 2-10 4.5 20:32:56 10° N 20:38:36 57° ENE 20:42:50 18° SSE
Cosmos 2322 Rocket 2.2 20:35:53 10° NNW 20:41:35 78° ENE 20:45:49 19° SE
Cosmos 1602 Rocket 3.5 20:41:08 10° N 20:45:29 89° W 20:48:44 17° S
USA 306 3.7 20:43:25 10° WNW 20:45:51 25° N 20:47:30 10° NE
Cosmos 2082 Rocket 3.6 20:41:15 10° WSW 20:46:40 42° NW 20:52:05 10° NNE
NOSS 3-4 (A) 3.8 20:42:25 10° NW 20:49:05 84° SW 20:55:06 19° SE
NOSS 3-4 (C) 3.9 20:43:03 10° NW 20:49:45 84° SW 20:55:45 19° SE
Cosmos 1707 4.2 20:52:04 13° E 20:52:04 13° E 20:53:11 10° ENE
CZ-4B R/B 2.6 20:49:58 21° S 20:52:09 72° WSW 20:55:38 10° NNW
Cosmos 2151 3.7 20:51:43 10° NNW 20:55:41 48° W 20:59:05 13° SSW
Cosmos 2098 Rocket 3.0 20:53:24 15° S 20:57:13 73° E 21:01:17 10° NNE
Cosmos 1076 Rocket 3.9 20:54:03 10° N 20:58:11 47° ENE 21:00:20 25° SE
Cosmos 44 4.1 20:53:36 10° NNW 20:58:53 50° NE 21:02:45 17° ESE
Cosmos 2237 Rocket 4.4 20:55:29 10° N 20:59:12 17° NNE 21:02:53 10° ENE
CZ-4C R/B 4.4 20:56:25 10° WNW 21:00:34 27° NNW 21:05:43 10° NE
Ariane Rocket 3.0 20:59:02 19° S 21:02:42 80° WSW 21:07:47 10° NNW
Cosmos 2278 4.3 21:03:08 10° NW 21:08:40 52° WSW 21:12:37 19° S
SL-16 R/B 3.2 21:07:22 10° NW 21:12:35 39° WSW 21:16:43 15° S
SPOT 3 Rocket 4.1 21:09:24 16° S 21:13:24 52° W 21:18:26 10° NNW
Meteor 1-5 Rocket 4.4 21:07:41 10° NNW 21:13:27 76° W 21:17:38 20° S
COSMOS 2428 3.9 21:08:18 10° NNW 21:13:29 34° NE 21:17:37 15° ESE
Cosmos 1763 Rocket 3.6 21:10:53 19° S 21:14:35 58° ESE 21:19:45 10° NNE
USA 186 4.2 21:13:48 10° WSW 21:15:07 13° W 21:16:25 10° WNW
USA 290 2.0 21:18:07 28° SSW 21:19:38 87° WNW 21:22:48 10° NNE
Cosmos 1606 Rocket 3.5 21:17:15 21° S 21:20:05 87° W 21:24:26 10° N
Cosmos 990 Rocket 3.9 21:18:06 10° NNW 21:23:18 87° ENE 21:26:04 29° SSE
Cosmos 1464 Rocket 4.0 21:18:41 14° SSW 21:24:04 82° W 21:30:19 10° N
Helios 1B rocket 3.4 21:24:22 23° E 21:25:24 27° ENE 21:28:24 10° N
CZ-4B R/B 4.1 21:23:16 19° SSW 21:26:26 46° W 21:31:07 10° NNW
ISS -3.6 21:23:14 10° WNW 21:26:34 72° N 21:28:15 27° E
Cosmos 1461 4.4 21:23:15 10° WSW 21:26:38 33° NW 21:30:00 10° NNE
Okean 1 3.0 21:25:54 31° SSW 21:27:31 83° W 21:31:08 10° N
Cosmos 1726 Rocket 3.2 21:25:49 30° S 21:27:46 83° E 21:31:51 10° NNE
BREEZE-M DEB (TANK) 1.3 21:26:11 10° W 21:28:12 56° W 21:28:12 56° W
Okean O Rocket 4.1 21:31:30 10° SW 21:34:00 15° W 21:36:32 10° NW
Cosmos 1536 3.0 21:32:28 10° N 21:36:04 49° ENE 21:36:59 39° ESE
Cosmos-2242 2.9 21:37:48 39° SSE 21:39:07 61° E 21:43:11 10° NNE
Cosmos 1092 Rocket 4.0 21:35:48 10° N 21:42:00 77° E 21:45:20 29° SSE
Cosmos 2333 Rocket 3.8 21:38:13 10° NW 21:42:50 26° WSW 21:46:30 14° SSW
KORONAS-FOTON 4.0 21:43:53 41° ESE 21:44:02 41° E 21:47:16 10° NNE
Cosmos 2297 Rocket 3.8 21:46:14 16° ESE 21:46:53 17° E 21:50:20 10° ENE
Cosmos 841 Rocket 4.4 21:47:27 27° ESE 21:48:31 30° E 21:53:01 10° NE
Cosmos 1833 4.2 21:44:13 13° SSW 21:49:25 85° WNW 21:55:05 10° NNE
Cosmos 2360 Rocket 3.2 21:47:41 10° NW 21:52:49 36° WSW 21:55:44 22° SSW
CZ-2C R/B 4.1 21:52:45 17° WSW 21:53:17 18° W 21:55:17 10° NW
Cosmos 1766 2.7 21:53:12 10° NNW 21:56:25 70° W 21:56:45 62° SW
Cosmos 1842 3.4 21:56:49 40° E 21:56:49 40° E 21:59:34 10° NNE
Cosmos 2322 3.8 21:51:49 10° NNW 21:57:32 69° ENE 22:00:18 31° SE
Cosmos 1975 3.6 21:55:14 10° N 21:58:38 34° ENE 21:59:14 32° E
Meteor 2-6 Rocket 4.5 21:58:28 33° SSE 22:01:05 59° E 22:06:56 10° NNE
Cosmos 2034 Rocket 4.3 21:58:36 19° SSW 22:03:17 65° WNW 22:09:37 10° N
Cosmos 372 Rocket 3.9 21:58:19 10° NNW 22:03:27 86° ENE 22:05:24 39° SSE
Cosmos 2221 3.2 22:03:18 33° ESE 22:03:51 34° E 22:07:41 10° NNE
Cosmos 2219 Rocket 2.8 22:00:17 10° NW 22:05:39 45° WSW 22:08:05 29° SSW
Cosmos 1271 Rocket 2.8 22:06:21 47° E 22:06:21 47° E 22:09:32 10° NNE
SL-08 ROCKET BODY 4.5 22:04:35 10° N 22:10:48 77° E 22:13:38 34° SSE
Cosmos 540 Rocket 4.0 22:07:44 15° SW 22:11:52 57° WNW 22:16:57 10° NNE
Helios 1A 2.9 22:13:01 10° N 22:16:56 69° WNW 22:18:07 42° SW
Cosmos 2279 Rocket 4.0 22:16:39 34° S 22:19:30 73° E 22:25:46 10° NNE
RESURS DK-1 2.1 22:16:04 10° NNW 22:20:05 89° ENE 22:20:46 60° SSE
Aureole 1 Rocket 4.3 22:15:45 10° NNW 22:21:29 58° WSW 22:24:34 32° S
Cosmos 1707 3.5 22:23:33 28° W 22:23:45 29° WNW 22:26:17 10° N
Cosmos 2322 Rocket 4.0 22:21:00 10° NW 22:24:58 20° W 22:27:37 14° SW
Cosmos 1634 Rocket 4.0 22:22:33 29° SSW 22:25:54 75° W 22:32:09 10° N
Cosmos 1937 Rocket 3.4 22:23:12 10° NNW 22:28:22 78° ENE 22:30:09 42° SE
TSX-5 4.0 22:27:11 10° NW 22:29:55 43° W 22:29:55 43° W
SL-16 R/B 4.3 22:28:09 10° N 22:32:34 22° NE 22:36:57 10° E
Geosat 4.2 22:27:37 10° NNE 22:32:37 71° WNW 22:35:38 24° SW
Cosmos 2058 Rocket 3.8 22:30:59 29° SW 22:32:46 45° WNW 22:36:58 10° N
CZ-2C R/B 3.6 22:28:43 10° NNE 22:33:12 73° ESE 22:34:15 51° S
Cosmos 468 Rocket 4.3 22:30:13 25° SW 22:33:15 66° WNW 22:38:30 10° NNE
GP-B 3.8 22:31:16 10° NNE 22:35:23 39° E 22:36:11 35° ESE
Meteor 2-9 Rocket 4.1 22:34:03 10° NNW 22:39:28 80° W 22:41:24 42° S
Cosmos 44 4.3 22:35:01 10° NW 22:39:55 36° WSW 22:41:01 33° SW
CZ-2C R/B 3.7 22:39:09 23° ESE 22:41:41 36° ENE 22:46:25 10° N
Lacrosse 4 Rocket 3.0 22:42:43 20° E 22:42:43 20° E 22:45:03 10° ENE
Cosmos 2237 Rocket 2.5 22:38:48 10° NNW 22:44:27 62° ENE 22:47:09 31° SE
SeaSat 1 4.3 22:43:09 10° E 22:47:11 26° NE 22:51:14 10° NNW
USA 234 3.6 22:41:49 10° ENE 22:47:58 42° SE 22:49:36 36° SSE
Cosmos 2266 Rocket 3.9 22:41:57 10° N 22:48:01 77° E 22:50:26 39° SSE
Cosmos 1980 3.8 22:43:03 10° NNW 22:48:44 71° ENE 22:51:12 35° SE
Cosmos 1470 3.2 22:46:20 10° NNW 22:49:19 40° W 22:49:19 40° W
ATLAS 2AS CENTAUR R/B 4.5 22:46:32 10° NW 22:52:25 30° NNE 22:58:15 10° ENE
Intercosmos 24 4.1 22:49:25 10° N 22:53:09 48° ENE 22:53:29 46° E
ARIANE 5 R/B 2.7 22:52:41 51° SSW 22:53:34 65° WSW 22:58:02 10° NNW
ALOS 2 2.6 22:54:46 56° SSW 22:55:37 74° WSW 23:00:01 10° NNW
Cosmos 2227 Rocket 3.5 22:55:50 23° ESE 22:56:50 25° ESE 23:01:20 10° NE
COSMOS 2428 3.0 22:52:26 10° NW 22:57:57 52° WSW 22:59:34 40° SSW
Helios 1B rocket 3.6 22:58:18 25° W 22:58:21 25° W 23:01:17 10° NW
Meteor 2-4 Rocket 4.3 23:00:13 34° SE 23:01:47 43° E 23:07:00 10° NNE
BlueWalker 3 4.1 23:05:21 14° E 23:05:21 14° E 23:06:05 10° E
ISS -1.6 23:00:08 10° W 23:01:11 18° W 23:01:11 18° W
Cosmos 1898 Rocket 4.1 22:58:27 10° NW 23:03:20 42° WSW 23:04:34 36° SW
Cosmos 2263 Rocket 3.8 23:03:56 17° ESE 23:05:00 18° E 23:08:41 10° ENE
CZ-2C R/B 3.6 23:01:50 10° NNE 23:07:32 57° E 23:09:26 40° SSE
Meteor 1-11 Rocket 3.7 23:02:42 10° NNW 23:08:21 72° W 23:10:10 43° S
Cosmos 1766 Rocket 3.8 23:05:02 10° N 23:09:17 59° ENE 23:10:08 48° ESE
SAR-Lupe-2 3.7 23:10:57 57° WNW 23:10:57 57° WNW 23:13:56 10° NNW
Meteor 1-10 Rocket 4.3 23:11:29 39° SSW 23:13:50 79° WNW 23:19:50 10° N
Cosmos 1238 Rocket 3.1 23:14:04 53° ESE 23:14:29 56° E 23:18:48 10° NNE
PSLV R/B 3.6 23:12:01 10° N 23:16:19 75° WNW 23:17:16 53° SW
Cosmos 1655 Rocket 4.1 23:15:16 10° N 23:21:31 71° ENE 23:24:14 36° SSE
Alouette 2 Rocket 3.6 23:23:20 10° N 23:27:10 75° ENE 23:28:18 49° SSE
Meteor 1-27 Rocket 3.7 23:25:49 42° S 23:27:55 90° ESE 23:33:41 10° NNE
NOSS 0 Rocket 4.5 23:23:24 10° NW 23:29:09 42° WSW 23:30:48 35° SW
Meteor 2-10 Rocket 3.9 23:24:20 10° N 23:29:50 64° ENE 23:32:13 35° SE
Cosmos 841 Rocket 4.3 23:27:23 25° WSW 23:30:06 46° WNW 23:35:09 10° NNE
Cosmos 2297 Rocket 2.1 23:27:59 40° SSW 23:30:06 89° WNW 23:35:48 10° NNE
Cosmos 1975 4.5 23:30:40 10° NW 23:33:22 20° W 23:33:29 19° W
SL-14 R/B 4.2 23:39:49 33° ESE 23:40:09 34° E 23:43:36 10° NNE
Cosmos 2221 4.1 23:39:35 21° W 23:40:57 25° WNW 23:44:28 10° NNW
Cosmos 158 Rocket 4.1 23:39:40 46° S 23:41:11 68° ESE 23:46:29 10° NNE
CZ-4C R/B 4.0 23:38:43 10° NNE 23:41:47 34° E 23:41:47 34° E
MetOp-A 4.1 23:42:38 45° SW 23:43:37 53° W 23:48:12 10° NNW
ACS3 Solar Sail 2.5 23:38:01 10° NNE 23:43:41 42° E 23:46:10 29° SE
Landsat 5 3.4 23:43:58 10° NNE 23:48:00 62° ESE 23:48:28 57° SE
